Flag for Brazil Weather past 2 weeks in Campinas, São Paulo, Brazil

Now
66 °F

Clear.


Feels Like: 66 °F
Forecast: 59 / 68 °F
Wind: 6 mph from Southeast

Location: Campinas Aeroporto

Current Time: Jul 6, 2015 at 9:18:11 PM

Latest Report: Jul 6, 2015 at 9:00 PM


Visibility: 10 mi

Pressure: 30.12 "Hg (27.80 "Hg at 686m altitude)

Humidity: 83%

Dew point: 61 °F

Location of CampinasLocation

Historic Weather in Campinas — Graph

°F

Campinas temperature yesterday

Maximum temperature yesterday: 59 °F (at 12:00 PM)
Minimum temperature yesterday: 54 °F (at 12:00 AM)
Average temperature yesterday: 56 °F

Past Weeks' High & Low Weather Summary

 TemperatureHumidityPressure
High79 °F (Jun 22, 3:00 PM)100% (Jul 1, 7:00 AM)30.48 "Hg (Jul 1, 7:00 AM)
Low52 °F (Jun 27, 5:00 AM)31% (Jun 27, 4:00 PM)29.98 "Hg (Jul 3, 4:00 PM)
Average63 °F75%30.22 "Hg
* Reported Jun 21 8:00 PM — Jul 6 8:00 PM, Campinas, Weather by CustomWeather, © 2015

Note: Actual official high and low records may vary slightly from our data, if they occured in-between our weather recording intervals... More about our weather records

Advertising

Campinas weather history for previous 24 hours

 ConditionsComfort  
Time TempWeatherWind HumidityBarometerVisibility
8:00 PM
Mon, Jul 6
68 °FClear.7 mph78%30.09 "Hg10 mi
7:00 PM72 °FClear.3 mph65%30.09 "Hg10 mi
6:00 PM72 °FClear.2 mph65%30.09 "Hg10 mi
5:00 PM73 °FClear.3 mph61%30.09 "Hg10 mi
4:00 PM77 °FSunny.5 mph54%30.09 "Hg10 mi
3:00 PM75 °FSunny.5 mph57%30.09 "Hg10 mi
2:00 PM75 °FSunny.5 mph57%30.09 "Hg10 mi
1:00 PM73 °FSunny.6 mph57%30.12 "Hg10 mi
12:00 PM70 °FSunny.7 mph60%30.15 "Hg10 mi
11:00 AM68 °FSunny.7 mph64%30.15 "Hg10 mi
10:00 AM63 °FSunny.9 mph73%30.18 "Hg10 mi
9:00 AM59 °FSunny.9 mph77%30.18 "Hg10 mi
8:00 AM57 °FSunny.12 mph77%30.18 "Hg10 mi
7:00 AM55 °FSunny.12 mph82%30.18 "Hg10 mi
6:00 AM55 °FSunny.12 mph82%30.15 "Hg10 mi
5:00 AM55 °FClear.14 mph77%30.12 "Hg10 mi
4:00 AM55 °FClear.9 mph77%30.12 "Hg10 mi
3:00 AM55 °FClear.8 mph82%30.12 "Hg10 mi
2:00 AM55 °FClear.14 mph82%30.12 "Hg10 mi
1:00 AM57 °FPartly cloudy.16 mph77%30.15 "HgN/A
12:00 AM55 °FClear.15 mph82%30.15 "Hg10 mi
11:00 PM
Sun, Jul 5
57 °FClear.15 mph77%30.15 "Hg10 mi
10:00 PM57 °FClear.14 mph77%30.15 "Hg10 mi
9:00 PM57 °FClear.14 mph77%30.15 "Hg10 mi
Weather by CustomWeather, © 2015

See weather overviewHow to use our weather pages